Tracking 29892 objects as of 21-Nov-2024
HD Live streaming from Space Station
objects crossing your sky now

STARLINK-3681

Track STARLINK-3681 now!
10-day predictions
STARLINK-3681 is classified as:


NORAD ID: 51968
Int'l Code: 2022-025N
Perigee: 553.3 km
Apogee: 555.4 km
Inclination: 53.1 °
Period: 95.6 minutes
Semi major axis: 6925 km
RCS: Unknown
Launch date: March 9, 2022
Source: United States (US)
Launch site: AIR FORCE EASTERN TEST RANGE (AFETR)
Your satellite tracking list
Your tracking list is empty




NASA's NSSDC Master Catalog

Two Line Element Set (TLE):
1 51968U 22025N   24325.47940825  .00000048  00000-0  22128-4 0  9996
2 51968  53.0554 355.7407 0001466 103.0832 257.0321 15.06401955149503
Source of the keplerian elements: AFSPC